Regional Weather Roundup
Issued by NWS

Home | Current Version | Previous Version | Graphics & Text | Print | Product List | Glossary Off
Versions: 1 2 3 4 5 6 7 8 9 10 11 12 13 14 15 16 17 18 19 20 21 22 23 24 25 26 27 28 29 30 31 32 33 34 35 36 37 38 39 40 41 42 43 44 45 46 47 48 49 50

000
ASUS43 KMKX 301700
RWRWI

WISCONSIN REGIONAL WEATHER ROUNDUP
NATIONAL WEATHER SERVICE MILWAUKEE/SULLIVAN WI
1200 PM CDT WED JUL 30 2014

NOTE: "FAIR" INDICATES FEW OR NO CLOUDS BELOW 12,000 FEET WITH NO
SIGNIFICANT WEATHER AND/OR OBSTRUCTIONS TO VISIBILITY.

WIZ001-002-006>008-014>016-023>028-301800-
NORTHWEST WISCONSIN

CITY           SKY/WX    TMP DP  RH WIND       PRES   REMARKS
SUPERIOR ARPT  SUNNY     70  60  72 SW7       30.05S
ASHLAND        SUNNY     70  59  68 VRB6      30.05F
HAYWARD        SUNNY     65  58  78 S8        30.09S
SIREN          SUNNY     70  57  63 CALM      30.08F
RICE LAKE      SUNNY     66  57  72 CALM      30.12R
LADYSMITH      MOSUNNY   64  58  83 CALM      30.12S
EAU CLAIRE     NOT AVBL
MENOMONIE      MOSUNNY   71  56  60 CALM      30.10R
NEW RICHMOND   SUNNY     72  56  57 SW3       30.10S
OSCEOLA        SUNNY     73  59  62 CALM      30.12S
$$

WIZ003>005-009-010-017-018-301800-
NORTH CENTRAL WISCONSIN

CITY           SKY/WX    TMP DP  RH WIND       PRES   REMARKS
WOODRUFF       SUNNY     72  56  58 NW6       30.07F
RHINELANDER    MOSUNNY   68  52  56 VRB6      30.08S
EAGLE RIVER    MOSUNNY   66  45  46 N5        30.06S
LAND O LAKES   MOSUNNY   67  45  45 W8        30.07S
PHILLIPS       SUNNY     64  57  79 SW3       30.09S
TOMAHAWK       SUNNY     60  58  93 CALM      30.09S
MEDFORD        SUNNY     64  57  79 NW3       30.09F
MERRILL        SUNNY     65  56  72 W6        30.07F
$$

WIZ029-030-035-036-043>047-301800-
CENTRAL WISCONSIN

CITY           SKY/WX    TMP DP  RH WIND       PRES   REMARKS
WAUSAU         MOSUNNY   69  53  56 W10       30.06S
MOSINEE        MOSUNNY   70  46  43 N9        30.08F
MARSHFIELD     SUNNY     71  52  50 NW10      30.08S
STEVENS POINT  MOSUNNY   67  47  48 CALM      30.07S
WAUPACA        MOSUNNY   73  52  48 W5        30.06S
WAUTOMA        NOT AVBL
WISC RAPIDS    MOSUNNY   71  50  47 W5        30.08S
CAMP DOUGLAS   NOT AVBL
$$

WIZ011>013-019>022-031-037>040-048>050-301800-
NORTHEAST WISCONSIN

CITY           SKY/WX    TMP DP  RH WIND       PRES   REMARKS
ANTIGO         MOSUNNY   66  54  64 NW9       30.08S
STURGEON BAY   SUNNY     64  52  63 NW8       30.06R
GREEN BAY      MOSUNNY   69  54  58 NW9       30.05S
MANITOWOC      NOT AVBL
APPLETON       PTSUNNY   70  48  46 NW7       30.06S
CLINTONVILLE   SUNNY     70  46  43 NW7       30.06S
OSHKOSH        PTSUNNY   68  56  65 NE5       30.05S
$$

WIZ032>034-041-042-053>061-301800-
SOUTHWEST WISCONSIN

CITY           SKY/WX    TMP DP  RH WIND       PRES   REMARKS
LA CROSSE      SUNNY     72  59  63 W7        30.08S
SPARTA         CLOUDY    66  57  74 NW3       30.10S
VIROQUA        FAIR      70  59  66 NW7       30.09F
BOSCOBEL       SUNNY     78  57  48 MISG      30.07S
PRAIRIE DU CHI SUNNY     73  55  52 CALM      30.08S
PLATTEVILLE    FAIR      72  59  63 NW7       30.09S
$$

WIZ056-057-062-063-064-067-068-301800-
SOUTH CENTRAL WISCONSIN

CITY           SKY/WX    TMP DP  RH WIND       PRES   REMARKS
BARABOO/DELLS  MOSUNNY   66  54  65 N5        30.08S
LONE ROCK      NOT AVBL
WATERTOWN      CLOUDY    64  59  82 CALM      30.06F
MADISON        PTSUNNY   72  58  61 VRB5      30.07S
MIDDLETON      FAIR      71  55  57 CALM      30.07S
MONROE         MOSUNNY   72  59  64 NW7       30.07S
JANESVILLE     PTSUNNY   75  55  50 NW12G17   30.05S
$$

WIZ051-052-058>065-066-070>072-301800-
SOUTHEAST WISCONSIN

CITY           SKY/WX    TMP DP  RH WIND       PRES   REMARKS
MILWAUKEE      MOSUNNY   68  57  68 NE12      30.06S
WAUKESHA       PTSUNNY   64  57  77 W6        30.07
MILWAUKEE/TIMM CLOUDY    68  55  64 NE6       30.06S
RACINE         MOSUNNY   69  59  70 NE12      30.07S
BURLINGTON     PTSUNNY   68  58  70 NW6       30.06S
KENOSHA        PTSUNNY   70  60  70 N5        30.06R
FOND DU LAC    SUNNY     69  56  62 NE9       30.06S
SHEBOYGAN      MOSUNNY   69  54  58 N3        30.05S
WEST BEND      PTSUNNY   66  54  63 NE5       30.05F
JUNEAU         CLOUDY    66  56  71 NE5       30.07S
$$

LSZ147-162-301800-
LAKE SUPERIOR

STATION/POSITION TIME  TEMP    WIND        PRES    WAVE
                       AIR SEA DIR/SP/G            HT/PER
                 (UTC) (F)     (DEG/KT/KT) (MB)    (FT/S)
W MID LAKE BUOY  1550   46 42  220/ 10/ 10 1017.1F   0
PORT WING        1600   60     280/  8/  9 1017.6F
SAXON HARBOR     1600           CALM  /  4 1017.9S
$$

LMZ867-665-643>646-301800-
LAKE MICHIGAN

STATION/POSITION TIME  TEMP    WIND        PRES    WAVE
                       AIR SEA DIR/SP/G            HT/PER
                 (UTC) (F)     (DEG/KT/KT) (MB)    (FT/S)
N MID LAKE BUOY  1550   52 53   60/  6/  6 1016.7S   1
NORTHPORT PIER   1600   60     310/  6/  9 1016.9F
SISTER BAY       1555   63     350/  9/ 11   N/A
ALGOMA LAKESHORE 1606          350/  8/ 10   N/A
KEWAUNEE LAKESHO 1600   58     160/  4/  5 1017.9S
SHEBOYGAN LAKESH 1600   59      40/  6/  6 1017.9R
PORT WASHINGTON  1600   63      40/  5/  7 1018.3R
ATWATER BUOY     1600   62      10/  8     1018.7R
MILWAUKEE LAKESH 1600   61      40/  9/ 10   N/A
S MID LAKE BUOY  1550   60 60  310/  8/ 10 1017.6R   1
KENOSHA   LAKESH 1600   62      40/  9/ 11 1017.3R
$$

TC  - TEMPERATURE IN CELSIUS
VSB - VISIBILITY IN STATUTE MILES
WCI - WIND CHILL INDEX
HX  - HEAT INDEX



USA.gov is the U.S. government's official web portal to all federal, state and local government web resources and services.